{"data":{"norad_id":54828,"intl_designator":"2022-177J","name":"STARLINK-5381","alt_names":[],"object_type":"PAYLOAD","status":"ACTIVE","operator":null,"country":"US","launch_date":"2022-12-28","launch_site_code":"AFETR","launch_vehicle":null,"mission":null,"orbit_class":"UNKNOWN","rcs_meters":null,"size_class":null,"mass_kg":null,"dimensions":null,"purposes":["comms"],"wikipedia_slug":null,"has_3d_model":false,"image_url":null,"decayed_at":null,"tle_current":{"epoch":"2026-05-25T01:54:19.017792Z","epoch_age_seconds":64060,"freshness":"FRESH","line1":"1 54828U 22177J   26145.07938678  .00001475  00000+0  63114-4 0  9997","line2":"2 54828  43.0034  64.8651 0000706 225.6878 134.3916 15.27569780188604","mean_motion":15.2756978,"eccentricity":7.06e-5,"inclination_deg":43.0034,"raan_deg":64.8651,"arg_perigee_deg":225.6878,"mean_anomaly_deg":134.3916,"bstar":6.3114e-5,"rev_number":18860,"period_min":94.267379392645,"perigee_km":482.59529666798,"apogee_km":483.56410046581,"semimajor_km":6861.2166985669,"source":"CELESTRAK","updated_at":"2026-05-25T13:38:17.721615Z"}}}